Find GPS III SV08

NORAD ID: 64202 Int'l Des: 2025-116 Owner: SFSSC Country: US Constellation: GPS operational
MEOCIRCULARGNSS

リアルタイム位置

3D地球を読み込み中...

GPS III SV08について

説明を読み込み中...

次回通過

Passes for default location (London). Set your location on the main map for personalized predictions.

高度履歴

Loading altitude history...

軌道要素

1 64202U 25116A 26118.48100316 -.00000108 00000-0 00000+0 0 9999
2 64202 55.2019 33.1306 0009198 336.0776 203.2034 2.00549626 6872
Epoch: Apr 28, 2026 • Age: 72 hours

現在のステータス

高度 20205.6 km
速度 3.87 km/s
衛星直下点 -6.81°S, 176.32°W
打ち上げ日 May 30, 2025
運用期間 0.9 years
タイプ navigation

技術仕様

分類 Payload
質量 4352.00 kg
乾燥質量 2160.00 kg
総質量 4352.00 kg
長さ 3.40 m
直径 1.80 m
スパン 14.00 m
形状 Box + 2 pan
製造者 LMSSD
バスタイプ A2100
フェーズステータス In Orbit
所有者/国 SFSSC/US

Most Searched